• In Spain
  • List of Countries
  • For 7 days
  • Water Temperature
  • Satellite Maps
  • Weather Map
  • Weather Widgets
  • user-avatar
    Login

    Hourly Weather Dobrich

    Today, 23 September, Sunday

    Time Temperature Precipitation Wind Pressure Humidity
    00:00 +19°C° 0 mm 2 mps 740 mmHg 69%
    01:00 +19°C° 0 mm 2 mps 740 mmHg 67%
    02:00 +19°C° 0 mm 3 mps 740 mmHg 64%
    03:00 +19°C° 0 mm 3 mps 740 mmHg 61%
    04:00 +18°C° 0 mm 3 mps 741 mmHg 59%
    05:00 +18°C° 0 mm 3 mps 741 mmHg 56%
    06:00 +18°C° 0 mm 3 mps 741 mmHg 56%
    07:00 +19°C° 0 mm 3 mps 741 mmHg 57%
    08:00 +19°C° 0 mm 3 mps 742 mmHg 57%
    09:00 +20°C° 0 mm 3 mps 742 mmHg 54%
    10:00 +21°C° 0 mm 3 mps 742 mmHg 51%
    11:00 +22°C° 0 mm 3 mps 743 mmHg 49%
    12:00 +25°C° 0 mm 3 mps 743 mmHg 47%
    13:00 +26°C° 0 mm 2 mps 742 mmHg 44%
    14:00 +27°C° 0 mm 2 mps 742 mmHg 42%
    15:00 +26°C° 0 mm 2 mps 742 mmHg 45%
    16:00 +26°C° 0 mm 3 mps 742 mmHg 49%
    17:00 +25°C° 0 mm 3 mps 742 mmHg 52%
    18:00 +24°C° 0 mm 3 mps 742 mmHg 61%
    19:00 +21°C° 0 mm 3 mps 742 mmHg 70%
    20:00 +19°C° 0 mm 3 mps 742 mmHg 79%
    21:00 +19°C° 0 mm 3 mps 742 mmHg 82%
    22:00 +19°C° 0 mm 3 mps 742 mmHg 85%
    23:00 +19°C° 0 mm 3 mps 742 mmHg 88%

    Tomorrow, 24 September, Monday

    Time Temperature Precipitation Wind Pressure Humidity
    00:00 +19°C° 0 mm 4 mps 741 mmHg 89%
    01:00 +19°C° 0 mm 4 mps 741 mmHg 91%
    02:00 +19°C° 0 mm 4 mps 740 mmHg 93%
    03:00 +19°C° 0 mm 4 mps 740 mmHg 93%
    04:00 +19°C° 0 mm 4 mps 739 mmHg 94%
    05:00 +19°C° 0 mm 4 mps 739 mmHg 94%
    06:00 +20°C° 0 mm 5 mps 738 mmHg 87%
    07:00 +21°C° 0 mm 5 mps 738 mmHg 81%
    08:00 +22°C° 0 mm 6 mps 738 mmHg 74%
    09:00 +24°C° 0 mm 6 mps 737 mmHg 63%
    10:00 +28°C° 0 mm 7 mps 737 mmHg 51%
    11:00 +30°C° 0 mm 7 mps 737 mmHg 40%
    12:00 +32°C° 0 mm 7 mps 736 mmHg 36%
    13:00 +33°C° 0 mm 7 mps 736 mmHg 33%
    14:00 +34°C° 0 mm 7 mps 735 mmHg 30%
    15:00 +33°C° 0 mm 6 mps 735 mmHg 32%
    16:00 +32°C° 0 mm 6 mps 736 mmHg 34%
    17:00 +30°C° 0 mm 6 mps 736 mmHg 36%
    18:00 +27°C° 0 mm 7 mps 737 mmHg 40%
    19:00 +23°C° 0 mm 8 mps 738 mmHg 44%
    20:00 +19°C° 0 mm 9 mps 739 mmHg 49%
    21:00 +18°C° 0 mm 8 mps 740 mmHg 53%
    22:00 +17°C° 0 mm 7 mps 741 mmHg 58%
    23:00 +15°C° 0 mm 7 mps 742 mmHg 63%

    Day after tomorrow, 25 September, Tuesday

    Time Temperature Precipitation Wind Pressure Humidity
    00:00 +15°C° 0.1 mm 6 mps 742 mmHg 61%
    01:00 +14°C° 0.1 mm 5 mps 743 mmHg 59%
    02:00 +14°C° 0.1 mm 5 mps 743 mmHg 57%
    03:00 +14°C° 0 mm 4 mps 743 mmHg 56%
    04:00 +14°C° 0 mm 4 mps 744 mmHg 55%
    05:00 +14°C° 0 mm 3 mps 744 mmHg 53%
    06:00 +14°C° 0 mm 3 mps 744 mmHg 52%
    07:00 +14°C° 0 mm 4 mps 745 mmHg 51%
    08:00 +14°C° 0 mm 4 mps 746 mmHg 50%
    09:00 +14°C° 0 mm 4 mps 746 mmHg 46%
    10:00 +15°C° 0 mm 4 mps 746 mmHg 42%
    11:00 +15°C° 0 mm 4 mps 746 mmHg 38%
    12:00 +16°C° 0 mm 5 mps 746 mmHg 36%
    13:00 +16°C° 0 mm 5 mps 746 mmHg 34%
    14:00 +16°C° 0 mm 6 mps 746 mmHg 32%
    15:00 +15°C° 0 mm 6 mps 746 mmHg 32%
    16:00 +15°C° 0 mm 6 mps 746 mmHg 32%
    17:00 +15°C° 0 mm 6 mps 746 mmHg 32%
    18:00 +14°C° 0 mm 5 mps 747 mmHg 37%
    19:00 +12°C° 0 mm 5 mps 748 mmHg 42%
    20:00 +10°C° 0 mm 5 mps 748 mmHg 47%
    21:00 +10°C° 0 mm 5 mps 749 mmHg 48%
    22:00 +9°C° 0 mm 5 mps 749 mmHg 48%
    23:00 +8°C° 0 mm 4 mps 749 mmHg 49%

    26 September, Wednesday

    Time Temperature Precipitation Wind Pressure Humidity
    00:00 +8°C° 0 mm 5 mps 749 mmHg 50%
    01:00 +8°C° 0 mm 5 mps 750 mmHg 50%
    02:00 +7°C° 0 mm 5 mps 750 mmHg 51%
    03:00 +7°C° 0 mm 5 mps 750 mmHg 52%
    04:00 +5°C° 0 mm 6 mps 750 mmHg 53%
    05:00 +5°C° 0 mm 6 mps 750 mmHg 54%
    06:00 +5°C° 0 mm 6 mps 751 mmHg 53%
    07:00 +6°C° 0 mm 7 mps 751 mmHg 51%
    08:00 +7°C° 0 mm 8 mps 751 mmHg 49%
    09:00 +9°C° 0 mm 8 mps 751 mmHg 45%
    10:00 +11°C° 0 mm 8 mps 752 mmHg 40%
    11:00 +12°C° 0 mm 8 mps 752 mmHg 36%
    12:00 +12°C° 0 mm 8 mps 751 mmHg 35%
    13:00 +13°C° 0 mm 8 mps 751 mmHg 33%
    14:00 +13°C° 0 mm 8 mps 751 mmHg 31%
    15:00 +13°C° 0 mm 8 mps 751 mmHg 32%
    16:00 +12°C° 0 mm 7 mps 751 mmHg 32%
    17:00 +12°C° 0 mm 7 mps 751 mmHg 32%
    18:00 +11°C° 0 mm 6 mps 751 mmHg 34%
    19:00 +10°C° 0 mm 6 mps 751 mmHg 37%
    20:00 +8°C° 0 mm 5 mps 751 mmHg 39%
    21:00 +8°C° 0 mm 5 mps 751 mmHg 39%
    22:00 +7°C° 0 mm 5 mps 751 mmHg 40%
    23:00 +7°C° 0 mm 5 mps 751 mmHg 40%

    27 September, Thursday

    Time Temperature Precipitation Wind Pressure Humidity
    00:00 +6°C° 0 mm 5 mps 751 mmHg 42%
    01:00 +6°C° 0 mm 5 mps 751 mmHg 43%
    02:00 +5°C° 0 mm 4 mps 750 mmHg 45%
    03:00 +5°C° 0 mm 4 mps 750 mmHg 47%
    04:00 +4°C° 0 mm 4 mps 750 mmHg 48%
    05:00 +4°C° 0 mm 4 mps 750 mmHg 50%
    06:00 +5°C° 0 mm 4 mps 750 mmHg 47%
    07:00 +6°C° 0 mm 5 mps 749 mmHg 45%
    08:00 +7°C° 0 mm 5 mps 749 mmHg 42%
    09:00 +9°C° 0 mm 5 mps 749 mmHg 38%
    10:00 +12°C° 0 mm 5 mps 749 mmHg 34%
    11:00 +14°C° 0 mm 5 mps 749 mmHg 30%
    12:00 +15°C° 0 mm 5 mps 749 mmHg 27%
    13:00 +16°C° 0 mm 5 mps 748 mmHg 25%
    14:00 +17°C° 0 mm 5 mps 747 mmHg 23%
    15:00 +17°C° 0 mm 4 mps 747 mmHg 24%
    16:00 +17°C° 0 mm 4 mps 746 mmHg 25%
    17:00 +17°C° 0 mm 4 mps 746 mmHg 26%
    18:00 +14°C° 0 mm 3 mps 746 mmHg 30%
    19:00 +13°C° 0 mm 3 mps 746 mmHg 35%
    20:00 +12°C° 0 mm 2 mps 746 mmHg 39%
    21:00 +12°C° 0 mm 2 mps 746 mmHg 42%
    22:00 +10°C° 0 mm 2 mps 745 mmHg 44%
    23:00 +10°C° 0 mm 2 mps 745 mmHg 47%

    28 September, Friday

    Time Temperature Precipitation Wind Pressure Humidity
    00:00 +10°C° 0 mm 2 mps 745 mmHg 46%
    01:00 +10°C° 0 mm 3 mps 745 mmHg 44%
    02:00 +10°C° 0 mm 3 mps 744 mmHg 43%
    03:00 +10°C° 0 mm 3 mps 744 mmHg 41%
    04:00 +10°C° 0 mm 3 mps 744 mmHg 39%
    05:00 +10°C° 0 mm 4 mps 744 mmHg 36%
    06:00 +11°C° 0 mm 4 mps 744 mmHg 34%
    07:00 +12°C° 0 mm 4 mps 744 mmHg 32%
    08:00 +14°C° 0 mm 5 mps 744 mmHg 30%
    09:00 +15°C° 0 mm 5 mps 744 mmHg 33%
    10:00 +17°C° 0 mm 5 mps 744 mmHg 35%
    11:00 +20°C° 0 mm 6 mps 744 mmHg 38%
    12:00 +20°C° 0 mm 6 mps 744 mmHg 39%
    13:00 +21°C° 0 mm 6 mps 743 mmHg 40%
    14:00 +22°C° 0 mm 6 mps 743 mmHg 41%
    15:00 +21°C° 0 mm 5 mps 743 mmHg 44%
    16:00 +21°C° 0 mm 5 mps 742 mmHg 47%
    17:00 +20°C° 0 mm 5 mps 742 mmHg 50%
    18:00 +19°C° 0 mm 4 mps 742 mmHg 59%
    19:00 +17°C° 0 mm 3 mps 742 mmHg 68%
    20:00 +16°C° 0 mm 3 mps 742 mmHg 76%
    21:00 +14°C° 0 mm 3 mps 742 mmHg 79%
    22:00 +14°C° 0 mm 3 mps 742 mmHg 81%
    23:00 +14°C° 0 mm 2 mps 742 mmHg 84%
    Show more